Погода в Барабинске

Погода в Барабинске : погода сейчас, прогноз погоды и архив. Всё, что Вы хотите узнать о погоде в Барабинске!

Хотите узнать прогноз погоды в Барабинске? Тогда Вам сюда: Погода в Барабинске

Поиск расширенной информации на нашем сайте:

Другие новости

Новости СМИ2

Главная страница сайта

Новости сайта

02.10.2013

Напоминаем, что на нашем новом сайте вы можете получить высокодетализированные прогнозы погоды по пунктам России, СНГ и мира (включающие важные для авиации метеовеличины, такие как направление и скорость ветра, видимость, явления погоды, количество и форма облачности, нижняя и верхняя граница облачности), а также ознакомиться с разнообразными материалами по авиационной метеорологии и подборкой полезных ссылок на эту тему.

Сайт Метеоцентр.Азия посвящён разработке технологий оптимизации авиаметеорологического обслуживания, включая проектирование и перспективное создание нескольких автоматизированных авиаметеорологических систем:
- система выпуска высокодетальных прогностических карт явлений погоды для нижнего воздушного пространства по России и ближнему зарубежью;
- система верификации прогнозов TAF (выпускаемых синоптиками официальных АМСГ РФ и ближнего зарубежья) и AUTOTAF (выпускаемых сайтом Метеоцентр.Азия) - выявление ошибок, онлайн-сопоставление с фактической погодой METAR, автоматическое внесение коррективов в прогнозы при резком отклонении фактической погоды от прогноза, подсчёт оправдываемости прогнозов по элементам и в целом;
- система обработки, анализа и отображения авиаметеорологической информации для применения провайдерами метеорологической информации.

Рекомендуем: Для клиентов Вешняков Компьютерная скорая помощь в тушино по филям.

Погода в Барабинске - сегодня

Время (UTC), дата Ветер
(°,м/с) 
Видим.   Явления Облачность Т
(°С)
Тd
(°С)
f(%) Тe
(°С)
Pmin
(гПа)
dP
(гПа)
Po
(мм)
O2
(г/м3)
Тmin Tmax R s Состояние
почвы
12 22.03.17 260 (З) 20000 м    ясно 
+3.5 -11.1 33 +4  1038.7  768  306    +6.1       
15 22.03.17 250 (З) 20000 м    ясно 
-4 -11.9 54 -4  1039.4  0.3  768  315           
18 22.03.17 240 (ЮЗ) 20000 м    ясно 
-8 -11.8 74 -8  1039.3  -0.4  767  320           
21 22.03.17 тихо ()   20000 м    ясно 
-10.8 -13.2 82 -11  1039.7  0.3  768  323           
00 23.03.17 160 (Ю) 20000 м    ясно 
-12.4 -14.5 84 -12  1040.2  0.4  768  326  -13.8      23  неравномерный
мокрый или
старый снег
100% 
03 23.03.17 160 (Ю) 20000 м    ясно 
-3.8 -13.2 48 -3  1040.2  0.5  768  315  -14.9         
06 23.03.17 210 (ЮЗ) 20000 м    ясно 
+3.4 -13.4 28 +4  1039.7  -0.1  768  307           
09 23.03.17 250 (З) 20000 м    ясно 
+5.2 -10.8 30 +6  1038.7  -0.9  768  305           
12 23.03.17 240 (ЮЗ) 20000 м    ясно 
+3.3 -11 34 +4  1038.3  -0.5  767  307    +5.5       
15 23.03.17 160 (Ю) 20000 м    ясно 
-4.7 -9.3 70 -4  1038.1  -0.6  767  315           
18 23.03.17 110 (В) 20000 м    ясно 
-7.6 -10.9 77 -7  1036.9  -1.3  766  319           
21 23.03.17 120 (ЮВ) 20000 м    ясно 
-11.7 -14.8 78 -12  1035.5  -1.7  765  323           
00 24.03.17 120 (ЮВ) 20000 м    ясно 
-7.5 -13.9 60 -9  1033.9  -1.3  764  318  -12.9      21  неравномерный
мокрый или
старый снег
100% 
03 24.03.17 110 (В) 20000 м    3/0 верхняя 
[Ci fib]
-3.6 -12.3 51 -7  1031.6  -2  762  312           
06 24.03.17 110 (В) 20000 м    ясно 
+2.1 -9.5 42 -1  1028.1  -3.2  760  305           
09 24.03.17 110 (В) 20000 м    ясно 
+3.2 -8.4 42 +1  1024.5  -3.4  757  302           
12 24.03.17 120 (ЮВ) 20000 м    ясно 
+2.5 -7 49 1021.3  -3.3  755  302    +3.5       
15 24.03.17 130 (ЮВ) 20000 м    ясно 
-0.6 -7.2 61 -3  1019.1  -2.3  753  305           
18 24.03.17 140 (ЮВ) 20000 м    6/0 средняя 
[Ac trans]
-0.2 -6.6 62 -3  1015.9  -3.1  751  303           
21 24.03.17 150 (ЮВ) 10 км  слаб. ливневой снег  10/10 600 м кучево-дожд. 
[Cb calv]
-0.9 -3.2 84 -3  1013.4  -2.5  749  303           
00 25.03.17 160 (Ю) 10 км  слаб. ливневой снег  10/10 600 м кучево-дожд. 
[Cb calv]
+0.1 -1.4 90 -2  1011.5  -1.8  747  301  -1.1    20  неравномерный
мокрый или
старый снег
100% 
03 25.03.17 190 (Ю) 10 км  в посл. час ливневой снег  10/10 600 м кучево-дожд. 
[Cb calv]
+0.8 -0.7 90 -2  1011.2  -0.3  747  300           
06 25.03.17 220 (ЮЗ) 5{10}  4000 м  дымка{ливн. осадки}  10/10 300 м кучево-дожд. 
[Cb calv]
+0.6 -1.2 88 -2  1011.7  0.5  748  301           
09 25.03.17 250 (З) 10 км    10/10 600 м кучево-дожд. 
[Cb calv]
-1 -4.3 78 -4  1014  2.2  749  303           
12 25.03.17 230 (ЮЗ) 20000 м    ясно 
+0.1 -5.6 65 -2  1016.1  2.1  751  303    +0.9  0.4     
Время (UTC), дата Ветер
(°,м/с) 
Видим.   Явления Облачность Т
(°С)
Тd
(°С)
f(%) Тe
(°С)
Pmin
(гПа)
dP
(гПа)
Po
(мм)
O2
(г/м3)
Тmin Tmax R s Состояние
почвы

Для получения пояснительной информации подведите курсор к названию столбца.

ПОГОДА в Барабинске - архив

Всё, что Вы хотите узнать о погоде в Барабинске - удобно и подробно!

Выберите нужную дату (начиная с 1 января 2015* года) и нажмите кнопку "Найти".
Будут отображены архивные сводки погоды по пункту Барабинск, начиная с указанной даты.


Отображать данные в формате CSV (для использования в таблицах Excel)


Внимание! Наш архив погоды предназначен исключительно для личного некоммерческого использования в познавательных целях. Если Вам необходимы официальные справки о состоянии погоды (для производственных, юридических, коммерческих и т.п. целей), обращайтесь в органы Росгидромета.

*Примечание: данная дата относится к архиву по метеостанциям СССР (Россия, СНГ, Балтия).
Архив по метеостанциям Зарубежной Европы и Азии (кроме Китая) хранится 10 дней, по другим регионам земного шара (Китай, Африка, Америка, Австралия, Океания) - 1 день.

Барабинск - район местоположения метеостанции


Название, широта, долгота, высота метеостанции:
Барабинск 55.3°ш. 78.4°д. 120 м над ур. моря [Российская Федерация]

Дополнительная информация

В oтличие oт бoльшинства пoгoдных сайтoв мы публикуем пoдрoбную метеoинфoрмацию в детальнoм прoфессиoнальнoм фoрмате.

Характеристики температуры и влажнoсти вoздуха измеряются на высoте 2 м в тени вдали oт зданий и деревьев.
Скoрoсть ветра измеряется на высoте 10 м (на урoвне рoста челoвека скoрoсть ветра ниже в 1.5-2 раза). Если метеoстанция нахoдится в гoрoде или в лесу, тo скoрoсть ветра занижена на 2-4 м/с пo сравнению с oткрытым местoм. Скoрoсть ветра над акватoриями крупных рек и oзёр, а также на вершинах хoлмoв на 2-5 м/с выше, чем в oбычных услoвиях.
Атмoсфернoе давление в разных тoчках местнoсти мoжет значительнo oтличаться oт давления на метеoстанции, в зависимoсти oт услoвий рельефа (при пoдъёме на 10 м давление пoнижается примернo на 1 мм рт.ст.).